Year,Month,Day,Hour,Minute,Value (Times are PST for temperature in C)
2010,08,28,00,00,8.60
2010,08,28,00,01,8.50
2010,08,28,00,02,8.50
2010,08,28,00,03,8.50
2010,08,28,00,04,8.50
2010,08,28,00,05,8.50
2010,08,28,00,06,8.50
2010,08,28,00,07,8.50
2010,08,28,00,08,8.40
2010,08,28,00,09,8.40
2010,08,28,00,10,8.40
2010,08,28,00,11,8.40
2010,08,28,00,12,8.40
2010,08,28,00,13,8.40
2010,08,28,00,14,8.40
2010,08,28,00,15,8.30
2010,08,28,00,16,8.30
2010,08,28,00,17,8.30
2010,08,28,00,18,8.30
2010,08,28,00,19,8.30
2010,08,28,00,20,8.20
2010,08,28,00,21,8.20
2010,08,28,00,22,8.20
2010,08,28,00,23,8.20
2010,08,28,00,24,8.20
2010,08,28,00,25,8.20
2010,08,28,00,26,8.10
2010,08,28,00,27,8.10
2010,08,28,00,28,8.10
2010,08,28,00,29,8.00
2010,08,28,00,30,8.00
2010,08,28,00,31,8.00
2010,08,28,00,32,8.00
2010,08,28,00,33,7.90
2010,08,28,00,34,7.90
2010,08,28,00,35,7.90
2010,08,28,00,36,7.90
2010,08,28,00,37,7.90
2010,08,28,00,38,7.90
2010,08,28,00,39,7.90
2010,08,28,00,40,7.90
2010,08,28,00,41,7.90
2010,08,28,00,42,7.90
2010,08,28,00,43,7.80
2010,08,28,00,44,7.80
2010,08,28,00,45,7.80
2010,08,28,00,46,7.80
2010,08,28,00,47,7.80
2010,08,28,00,48,7.80
2010,08,28,00,49,7.80
2010,08,28,00,50,7.80
2010,08,28,00,51,7.80
2010,08,28,00,52,7.80
2010,08,28,00,53,7.80
2010,08,28,00,54,7.70
2010,08,28,00,55,7.70
2010,08,28,00,56,7.70
2010,08,28,00,57,7.70
2010,08,28,00,58,7.70
2010,08,28,00,59,7.60
2010,08,28,01,00,7.60
2010,08,28,01,01,7.60
2010,08,28,01,02,7.60
2010,08,28,01,03,7.60
2010,08,28,01,04,7.50
2010,08,28,01,05,7.50
2010,08,28,01,06,7.50
2010,08,28,01,07,7.50
2010,08,28,01,08,7.50
2010,08,28,01,09,7.50
2010,08,28,01,10,7.50
2010,08,28,01,11,7.50
2010,08,28,01,12,7.50
2010,08,28,01,13,7.50
2010,08,28,01,14,7.50
2010,08,28,01,15,7.50
2010,08,28,01,16,7.50
2010,08,28,01,17,7.50
2010,08,28,01,18,7.50
2010,08,28,01,19,7.50
2010,08,28,01,20,7.50
2010,08,28,01,21,7.40
2010,08,28,01,22,7.40
2010,08,28,01,23,7.40
2010,08,28,01,24,7.40
2010,08,28,01,25,7.40
2010,08,28,01,26,7.40
2010,08,28,01,27,7.40
2010,08,28,01,28,7.30
2010,08,28,01,29,7.30
2010,08,28,01,30,7.30
2010,08,28,01,31,7.30
2010,08,28,01,32,7.30
2010,08,28,01,33,7.30
2010,08,28,01,34,7.30
2010,08,28,01,35,7.30
2010,08,28,01,36,7.30
2010,08,28,01,37,7.30
2010,08,28,01,38,7.30
2010,08,28,01,39,7.30
2010,08,28,01,40,7.30
2010,08,28,01,41,7.20
2010,08,28,01,42,7.20
2010,08,28,01,43,7.20
2010,08,28,01,44,7.20
2010,08,28,01,45,7.20
2010,08,28,01,46,7.20
2010,08,28,01,47,7.10
2010,08,28,01,48,7.10
2010,08,28,01,49,7.10
2010,08,28,01,50,7.10
2010,08,28,01,51,7.10
2010,08,28,01,52,7.10
2010,08,28,01,53,7.10
2010,08,28,01,54,7.10
2010,08,28,01,55,7.10
2010,08,28,01,56,7.10
2010,08,28,01,57,7.10
2010,08,28,01,58,7.10
2010,08,28,01,59,7.20
2010,08,28,02,00,7.20
2010,08,28,02,01,7.20
2010,08,28,02,02,7.20
2010,08,28,02,03,7.20
2010,08,28,02,04,7.10
2010,08,28,02,05,7.10
2010,08,28,02,06,7.10
2010,08,28,02,07,7.10
2010,08,28,02,08,7.10
2010,08,28,02,09,7.10
2010,08,28,02,10,7.00
2010,08,28,02,11,7.00
2010,08,28,02,12,7.00
2010,08,28,02,13,7.00
2010,08,28,02,14,7.00
2010,08,28,02,15,7.00
2010,08,28,02,16,7.00
2010,08,28,02,17,7.00
2010,08,28,02,18,7.00
2010,08,28,02,19,7.00
2010,08,28,02,20,7.00
2010,08,28,02,21,7.00
2010,08,28,02,22,7.00
2010,08,28,02,23,7.00
2010,08,28,02,24,7.00
2010,08,28,02,25,7.00
2010,08,28,02,26,7.00
2010,08,28,02,27,7.00
2010,08,28,02,28,7.00
2010,08,28,02,29,7.00
2010,08,28,02,30,7.00
2010,08,28,02,31,7.00
2010,08,28,02,32,6.90
2010,08,28,02,33,6.90
2010,08,28,02,34,6.90
2010,08,28,02,35,6.90
2010,08,28,02,36,6.90
2010,08,28,02,37,6.80
2010,08,28,02,38,6.80
2010,08,28,02,39,6.80
2010,08,28,02,40,6.80
2010,08,28,02,41,6.80
2010,08,28,02,42,6.80
2010,08,28,02,43,6.70
2010,08,28,02,44,6.70
2010,08,28,02,45,6.70
2010,08,28,02,46,6.70
2010,08,28,02,47,6.70
2010,08,28,02,48,6.70
2010,08,28,02,49,6.70
2010,08,28,02,50,6.70
2010,08,28,02,51,6.70
2010,08,28,02,52,6.70
2010,08,28,02,53,6.70
2010,08,28,02,54,6.70
2010,08,28,02,55,6.70
2010,08,28,02,56,6.70
2010,08,28,02,57,6.70
2010,08,28,02,58,6.70
2010,08,28,02,59,6.70
2010,08,28,03,00,6.70
2010,08,28,03,01,6.60
2010,08,28,03,02,6.60
2010,08,28,03,04,6.60
2010,08,28,03,05,6.60
2010,08,28,03,06,6.60
2010,08,28,03,07,6.60
2010,08,28,03,08,6.60
2010,08,28,03,09,6.60
2010,08,28,03,10,6.60
2010,08,28,03,11,6.60
2010,08,28,03,12,6.50
2010,08,28,03,13,6.40
2010,08,28,03,14,6.40
2010,08,28,03,15,6.40
2010,08,28,03,16,6.40
2010,08,28,03,17,6.40
2010,08,28,03,18,6.40
2010,08,28,03,19,6.30
2010,08,28,03,20,6.30
2010,08,28,03,21,6.30
2010,08,28,03,22,6.30
2010,08,28,03,23,6.30
2010,08,28,03,24,6.30
2010,08,28,03,25,6.30
2010,08,28,03,26,6.20
2010,08,28,03,27,6.20
2010,08,28,03,28,6.20
2010,08,28,03,29,6.20
2010,08,28,03,30,6.20
2010,08,28,03,31,6.20
2010,08,28,03,32,6.20
2010,08,28,03,33,6.20
2010,08,28,03,34,6.20
2010,08,28,03,35,6.20
2010,08,28,03,36,6.20
2010,08,28,03,37,6.20
2010,08,28,03,38,6.20
2010,08,28,03,39,6.20
2010,08,28,03,40,6.20
2010,08,28,03,41,6.20
2010,08,28,03,42,6.20
2010,08,28,03,43,6.20
2010,08,28,03,44,6.20
2010,08,28,03,45,6.20
2010,08,28,03,46,6.20
2010,08,28,03,47,6.20
2010,08,28,03,48,6.20
2010,08,28,03,49,6.20
2010,08,28,03,50,6.20
2010,08,28,03,51,6.20
2010,08,28,03,52,6.20
2010,08,28,03,53,6.20
2010,08,28,03,54,6.20
2010,08,28,03,55,6.20
2010,08,28,03,56,6.20
2010,08,28,03,57,6.20
2010,08,28,03,58,6.20
2010,08,28,03,59,6.20
2010,08,28,04,00,6.20
2010,08,28,04,01,6.20
2010,08,28,04,02,6.20
2010,08,28,04,03,6.20
2010,08,28,04,04,6.20
2010,08,28,04,05,6.30
2010,08,28,04,06,6.30
2010,08,28,04,07,6.30
2010,08,28,04,08,6.30
2010,08,28,04,09,6.30
2010,08,28,04,10,6.30
2010,08,28,04,11,6.30
2010,08,28,04,12,6.30
2010,08,28,04,13,6.30
2010,08,28,04,14,6.40
2010,08,28,04,15,6.40
2010,08,28,04,16,6.40
2010,08,28,04,17,6.40
2010,08,28,04,18,6.40
2010,08,28,04,19,6.40
2010,08,28,04,20,6.40
2010,08,28,04,21,6.40
2010,08,28,04,22,6.40
2010,08,28,04,23,6.40
2010,08,28,04,24,6.50
2010,08,28,04,25,6.50
2010,08,28,04,26,6.50
2010,08,28,04,27,6.50
2010,08,28,04,28,6.60
2010,08,28,04,29,6.60
2010,08,28,04,30,6.60
2010,08,28,04,31,6.60
2010,08,28,04,32,6.60
2010,08,28,04,33,6.60
2010,08,28,04,34,6.60
2010,08,28,04,35,6.60
2010,08,28,04,36,6.60
2010,08,28,04,37,6.60
2010,08,28,04,38,6.60
2010,08,28,04,39,6.70
2010,08,28,04,40,6.70
2010,08,28,04,41,6.70
2010,08,28,04,42,6.70
2010,08,28,04,43,6.70
2010,08,28,04,44,6.70
2010,08,28,04,45,6.70
2010,08,28,04,46,6.70
2010,08,28,04,47,6.70
2010,08,28,04,48,6.70
2010,08,28,04,49,6.70
2010,08,28,04,50,6.70
2010,08,28,04,51,6.60
2010,08,28,04,52,6.60
2010,08,28,04,53,6.60
2010,08,28,04,54,6.60
2010,08,28,04,55,6.60
2010,08,28,04,56,6.60
2010,08,28,04,57,6.60
2010,08,28,04,58,6.60
2010,08,28,04,59,6.60
2010,08,28,05,00,6.60
2010,08,28,05,01,6.60
2010,08,28,05,02,6.60
2010,08,28,05,03,6.60
2010,08,28,05,04,6.50
2010,08,28,05,05,6.40
2010,08,28,05,06,6.40
2010,08,28,05,07,6.40
2010,08,28,05,08,6.40
2010,08,28,05,09,6.40
2010,08,28,05,10,6.40
2010,08,28,05,11,6.40
2010,08,28,05,12,6.40
2010,08,28,05,13,6.40
2010,08,28,05,14,6.40
2010,08,28,05,15,6.40
2010,08,28,05,16,6.40
2010,08,28,05,17,6.40
2010,08,28,05,18,6.40
2010,08,28,05,19,6.40
2010,08,28,05,20,6.40
2010,08,28,05,21,6.50
2010,08,28,05,22,6.60
2010,08,28,05,23,6.60
2010,08,28,05,24,6.60
2010,08,28,05,25,6.60
2010,08,28,05,26,6.60
2010,08,28,05,27,6.60
2010,08,28,05,28,6.60
2010,08,28,05,29,6.60
2010,08,28,05,30,6.60
2010,08,28,05,31,6.50
2010,08,28,05,32,6.40
2010,08,28,05,33,6.40
2010,08,28,05,34,6.40
2010,08,28,05,35,6.40
2010,08,28,05,36,6.40
2010,08,28,05,37,6.40
2010,08,28,05,38,6.40
2010,08,28,05,39,6.40
2010,08,28,05,40,6.40
2010,08,28,05,41,6.40
2010,08,28,05,42,6.40
2010,08,28,05,43,6.50
2010,08,28,05,44,6.60
2010,08,28,05,45,6.60
2010,08,28,05,46,6.60
2010,08,28,05,47,6.60
2010,08,28,05,48,6.60
2010,08,28,05,49,6.60
2010,08,28,05,50,6.50
2010,08,28,05,51,6.40
2010,08,28,05,52,6.40
2010,08,28,05,53,6.40
2010,08,28,05,54,6.40
2010,08,28,05,55,6.40
2010,08,28,05,56,6.40
2010,08,28,05,57,6.40
2010,08,28,05,58,6.40
2010,08,28,05,59,6.40
2010,08,28,06,00,6.40
2010,08,28,06,01,6.40
2010,08,28,06,02,6.40
2010,08,28,06,03,6.40
2010,08,28,06,04,6.40
2010,08,28,06,05,6.40
2010,08,28,06,06,6.40
2010,08,28,06,07,6.40
2010,08,28,06,08,6.40
2010,08,28,06,09,6.30
2010,08,28,06,10,6.30
2010,08,28,06,11,6.30
2010,08,28,06,12,6.30
2010,08,28,06,13,6.30
2010,08,28,06,14,6.30
2010,08,28,06,15,6.30
2010,08,28,06,16,6.30
2010,08,28,06,17,6.30
2010,08,28,06,18,6.30
2010,08,28,06,19,6.30
2010,08,28,06,20,6.20
2010,08,28,06,21,6.20
2010,08,28,06,22,6.20
2010,08,28,06,23,6.20
2010,08,28,06,24,6.10
2010,08,28,06,25,6.10
2010,08,28,06,26,6.10
2010,08,28,06,27,6.10
2010,08,28,06,28,6.10
2010,08,28,06,29,6.10
2010,08,28,06,30,6.10
2010,08,28,06,31,6.10
2010,08,28,06,32,6.10
2010,08,28,06,33,6.10
2010,08,28,06,34,6.10
2010,08,28,06,35,6.10
2010,08,28,06,36,6.10
2010,08,28,06,37,6.10
2010,08,28,06,38,6.10
2010,08,28,06,39,6.10
2010,08,28,06,40,6.10
2010,08,28,06,41,6.00
2010,08,28,06,42,6.00
2010,08,28,06,43,6.00
2010,08,28,06,44,6.00
2010,08,28,06,45,5.90
2010,08,28,06,46,5.90
2010,08,28,06,47,5.90
2010,08,28,06,48,5.90
2010,08,28,06,49,5.90
2010,08,28,06,50,5.90
2010,08,28,06,51,5.90
2010,08,28,06,52,5.90
2010,08,28,06,53,6.00
2010,08,28,06,54,6.00
2010,08,28,06,55,6.00
2010,08,28,06,56,6.00
2010,08,28,06,57,6.00
2010,08,28,06,58,6.00
2010,08,28,06,59,6.00
2010,08,28,07,00,6.00
2010,08,28,07,01,6.00
2010,08,28,07,02,6.00
2010,08,28,07,03,6.00
2010,08,28,07,04,6.00
2010,08,28,07,05,5.90
2010,08,28,07,06,5.90
2010,08,28,07,07,5.90
2010,08,28,07,08,5.90
2010,08,28,07,09,5.80
2010,08,28,07,10,5.80
2010,08,28,07,11,5.80
2010,08,28,07,12,5.80
2010,08,28,07,13,5.70
2010,08,28,07,14,5.70
2010,08,28,07,15,5.70
2010,08,28,07,16,5.70
2010,08,28,07,17,5.70
2010,08,28,07,18,5.70
2010,08,28,07,19,5.70
2010,08,28,07,20,5.70
2010,08,28,07,21,5.70
2010,08,28,07,22,5.70
2010,08,28,07,23,5.80
2010,08,28,07,24,5.80
2010,08,28,07,25,5.80
2010,08,28,07,26,5.80
2010,08,28,07,27,5.90
2010,08,28,07,28,5.90
2010,08,28,07,29,5.90
2010,08,28,07,30,5.90
2010,08,28,07,31,6.00
2010,08,28,07,32,6.00
2010,08,28,07,33,6.00
2010,08,28,07,34,6.00
2010,08,28,07,35,6.00
2010,08,28,07,36,6.10
2010,08,28,07,37,6.10
2010,08,28,07,38,6.10
2010,08,28,07,39,6.10
2010,08,28,07,40,6.20
2010,08,28,07,41,6.20
2010,08,28,07,42,6.20
2010,08,28,07,43,6.30
2010,08,28,07,44,6.40
2010,08,28,07,45,6.40
2010,08,28,07,46,6.50
2010,08,28,07,47,6.60
2010,08,28,07,48,6.60
2010,08,28,07,49,6.60
2010,08,28,07,50,6.60
2010,08,28,07,51,6.70
2010,08,28,07,52,6.70
2010,08,28,07,53,6.80
2010,08,28,07,54,6.80
2010,08,28,07,55,6.80
2010,08,28,07,56,6.80
2010,08,28,07,57,6.90
2010,08,28,07,58,6.90
2010,08,28,07,59,6.90
2010,08,28,08,00,7.00
2010,08,28,08,01,7.00
2010,08,28,08,02,7.10
2010,08,28,08,03,7.20
2010,08,28,08,04,7.20
2010,08,28,08,05,7.30
2010,08,28,08,06,7.30
2010,08,28,08,07,7.40
2010,08,28,08,08,7.60
2010,08,28,08,09,7.60
2010,08,28,08,10,7.70
2010,08,28,08,11,7.80
2010,08,28,08,12,7.90
2010,08,28,08,13,8.10
2010,08,28,08,14,8.30
2010,08,28,08,15,8.40
2010,08,28,08,16,8.50
2010,08,28,08,17,8.60
2010,08,28,08,18,8.80
2010,08,28,08,19,8.90
2010,08,28,08,20,9.00
2010,08,28,08,21,9.10
2010,08,28,08,22,9.20
2010,08,28,08,23,9.30
2010,08,28,08,24,9.40
2010,08,28,08,25,9.40
2010,08,28,08,26,9.50
2010,08,28,08,27,9.50
2010,08,28,08,28,9.60
2010,08,28,08,29,9.60
2010,08,28,08,30,9.70
2010,08,28,08,31,9.70
2010,08,28,08,32,9.70
2010,08,28,08,33,9.80
2010,08,28,08,34,9.90
2010,08,28,08,35,10.00
2010,08,28,08,36,10.10
2010,08,28,08,37,10.20
2010,08,28,08,38,10.30
2010,08,28,08,39,10.40
2010,08,28,08,40,10.60
2010,08,28,08,41,10.70
2010,08,28,08,42,10.80
2010,08,28,08,43,10.90
2010,08,28,08,44,11.10
2010,08,28,08,45,11.30
2010,08,28,08,46,11.40
2010,08,28,08,47,11.50
2010,08,28,08,48,11.60
2010,08,28,08,49,11.70
2010,08,28,08,50,11.80
2010,08,28,08,51,11.90
2010,08,28,08,52,12.00
2010,08,28,08,53,12.20
2010,08,28,08,54,12.40
2010,08,28,08,55,12.60
2010,08,28,08,56,12.80
2010,08,28,08,57,12.90
2010,08,28,08,58,13.00
2010,08,28,08,59,13.10
2010,08,28,09,00,13.30
2010,08,28,09,01,13.40
2010,08,28,09,02,13.50
2010,08,28,09,03,13.60
2010,08,28,09,04,13.80
2010,08,28,09,05,14.00
2010,08,28,09,06,14.10
2010,08,28,09,07,14.30
2010,08,28,09,08,14.40
2010,08,28,09,09,14.50
2010,08,28,09,10,14.60
2010,08,28,09,11,14.80
2010,08,28,09,12,14.80
2010,08,28,09,13,15.00
2010,08,28,09,14,15.10
2010,08,28,09,15,15.10
2010,08,28,09,16,15.20
2010,08,28,09,17,15.30
2010,08,28,09,18,15.30
2010,08,28,09,19,15.30
2010,08,28,09,20,15.30
2010,08,28,09,21,15.30
2010,08,28,09,22,15.40
2010,08,28,09,23,15.40
2010,08,28,09,24,15.50
2010,08,28,09,25,15.50
2010,08,28,09,26,15.60
2010,08,28,09,27,15.60
2010,08,28,09,28,15.70
2010,08,28,09,29,15.70
2010,08,28,09,30,15.80
2010,08,28,09,31,15.80
2010,08,28,09,32,15.90
2010,08,28,09,33,15.90
2010,08,28,09,34,16.10
2010,08,28,09,35,16.10
2010,08,28,09,36,16.10
2010,08,28,09,37,16.20
2010,08,28,09,38,16.20
2010,08,28,09,39,16.30
2010,08,28,09,40,16.40
2010,08,28,09,41,16.30
2010,08,28,09,42,16.30
2010,08,28,09,43,16.40
2010,08,28,09,44,16.40
2010,08,28,09,45,16.40
2010,08,28,09,46,16.40
2010,08,28,09,47,16.40
2010,08,28,09,48,16.40
2010,08,28,09,49,16.40
2010,08,28,09,50,16.40
2010,08,28,09,51,16.50
2010,08,28,09,52,16.60
2010,08,28,09,53,16.70
2010,08,28,09,54,16.70
2010,08,28,09,55,16.60
2010,08,28,09,56,16.60
2010,08,28,09,57,16.60
2010,08,28,09,58,16.60
2010,08,28,09,59,16.60
2010,08,28,10,00,16.60
2010,08,28,10,01,16.60
2010,08,28,10,02,16.70
2010,08,28,10,03,16.80
2010,08,28,10,04,16.80
2010,08,28,10,05,16.90
2010,08,28,10,06,16.90
2010,08,28,10,07,17.00
2010,08,28,10,08,17.10
2010,08,28,10,09,17.20
2010,08,28,10,10,17.30
2010,08,28,10,11,17.30
2010,08,28,10,12,17.10
2010,08,28,10,13,17.10
2010,08,28,10,14,17.10
2010,08,28,10,15,17.00
2010,08,28,10,16,17.00
2010,08,28,10,17,17.00
2010,08,28,10,18,17.10
2010,08,28,10,19,17.00
2010,08,28,10,20,17.00
2010,08,28,10,21,17.00
2010,08,28,10,22,17.10
2010,08,28,10,23,17.10
2010,08,28,10,24,17.20
2010,08,28,10,25,17.30
2010,08,28,10,26,17.40
2010,08,28,10,27,17.50
2010,08,28,10,28,17.60
2010,08,28,10,29,17.70
2010,08,28,10,30,17.80
2010,08,28,10,31,17.80
2010,08,28,10,32,17.80
2010,08,28,10,33,17.70
2010,08,28,10,34,17.80
2010,08,28,10,35,17.80
2010,08,28,10,36,17.90
2010,08,28,10,37,17.90
2010,08,28,10,38,17.90
2010,08,28,10,39,17.90
2010,08,28,10,40,18.00
2010,08,28,10,41,18.10
2010,08,28,10,42,18.10
2010,08,28,10,43,17.90
2010,08,28,10,44,17.90
2010,08,28,10,45,17.90
2010,08,28,10,46,17.90
2010,08,28,10,47,17.90
2010,08,28,10,48,17.90
2010,08,28,10,49,17.90
2010,08,28,10,50,17.90
2010,08,28,10,51,18.00
2010,08,28,10,52,18.10
2010,08,28,10,53,18.10
2010,08,28,10,54,18.00
2010,08,28,10,55,17.90
2010,08,28,10,56,17.90
2010,08,28,10,57,17.90
2010,08,28,10,58,18.00
2010,08,28,10,59,18.10
2010,08,28,11,00,18.20
2010,08,28,11,01,18.20
2010,08,28,11,02,18.10
2010,08,28,11,03,18.00
2010,08,28,11,04,18.00
2010,08,28,11,05,18.10
2010,08,28,11,06,18.20
2010,08,28,11,07,18.20
2010,08,28,11,08,18.10
2010,08,28,11,09,18.10
2010,08,28,11,10,18.20
2010,08,28,11,11,18.30
2010,08,28,11,12,18.50
2010,08,28,11,13,18.60
2010,08,28,11,14,18.60
2010,08,28,11,15,18.80
2010,08,28,11,16,18.90
2010,08,28,11,17,19.00
2010,08,28,11,18,19.10
2010,08,28,11,19,19.00
2010,08,28,11,20,18.90
2010,08,28,11,21,18.70
2010,08,28,11,22,18.70
2010,08,28,11,23,18.70
2010,08,28,11,24,18.70
2010,08,28,11,25,18.80
2010,08,28,11,26,18.80
2010,08,28,11,27,18.90
2010,08,28,11,28,18.90
2010,08,28,11,29,18.90
2010,08,28,11,30,18.90
2010,08,28,11,31,18.90
2010,08,28,11,32,18.90
2010,08,28,11,33,18.90
2010,08,28,11,34,18.90
2010,08,28,11,35,19.00
2010,08,28,11,36,19.10
2010,08,28,11,37,19.20
2010,08,28,11,38,19.10
2010,08,28,11,39,19.00
2010,08,28,11,40,19.00
2010,08,28,11,41,19.10
2010,08,28,11,42,19.10
2010,08,28,11,43,19.10
2010,08,28,11,44,19.10
2010,08,28,11,45,19.10
2010,08,28,11,46,19.10
2010,08,28,11,47,19.10
2010,08,28,11,48,19.20
2010,08,28,11,49,19.30
2010,08,28,11,50,19.40
2010,08,28,11,51,19.50
2010,08,28,11,52,19.50
2010,08,28,11,53,19.50
2010,08,28,11,54,19.50
2010,08,28,11,55,19.50
2010,08,28,11,56,19.60
2010,08,28,11,57,19.60
2010,08,28,11,58,19.60
2010,08,28,11,59,19.40
2010,08,28,12,00,19.40
2010,08,28,12,01,19.40
2010,08,28,12,02,19.40
2010,08,28,12,03,19.30
2010,08,28,12,04,19.20
2010,08,28,12,05,19.10
2010,08,28,12,06,19.00
2010,08,28,12,07,18.90
2010,08,28,12,08,18.90
2010,08,28,12,09,19.00
2010,08,28,12,10,19.10
2010,08,28,12,11,19.20
2010,08,28,12,12,19.30
2010,08,28,12,13,19.40
2010,08,28,12,14,19.40
2010,08,28,12,15,19.40
2010,08,28,12,16,19.40
2010,08,28,12,17,19.50
2010,08,28,12,18,19.50
2010,08,28,12,19,19.40
2010,08,28,12,20,19.30
2010,08,28,12,21,19.20
2010,08,28,12,22,19.20
2010,08,28,12,23,19.20
2010,08,28,12,24,19.20
2010,08,28,12,25,19.30
2010,08,28,12,26,19.20
2010,08,28,12,27,19.10
2010,08,28,12,28,19.20
2010,08,28,12,29,19.20
2010,08,28,12,30,19.40
2010,08,28,12,31,19.50
2010,08,28,12,32,19.60
2010,08,28,12,33,19.80
2010,08,28,12,34,19.90
2010,08,28,12,35,20.00
2010,08,28,12,36,20.10
2010,08,28,12,37,20.20
2010,08,28,12,38,20.20
2010,08,28,12,39,20.10
2010,08,28,12,40,20.10
2010,08,28,12,41,20.20
2010,08,28,12,42,20.10
2010,08,28,12,43,20.10
2010,08,28,12,44,20.20
2010,08,28,12,45,20.20
2010,08,28,12,46,20.20
2010,08,28,12,47,20.20
2010,08,28,12,48,20.20
2010,08,28,12,49,20.30
2010,08,28,12,50,20.20
2010,08,28,12,51,20.20
2010,08,28,12,52,20.30
2010,08,28,12,53,20.40
2010,08,28,12,54,20.50
2010,08,28,12,55,20.50
2010,08,28,12,56,20.60
2010,08,28,12,57,20.70
2010,08,28,12,58,20.80
2010,08,28,12,59,20.90
2010,08,28,13,00,21.00
2010,08,28,13,01,21.00
2010,08,28,13,02,21.00
2010,08,28,13,03,21.00
2010,08,28,13,04,21.00
2010,08,28,13,05,21.00
2010,08,28,13,06,20.80
2010,08,28,13,07,20.50
2010,08,28,13,08,20.30
2010,08,28,13,09,20.00
2010,08,28,13,10,19.70
2010,08,28,13,11,19.50
2010,08,28,13,12,19.40
2010,08,28,13,13,19.20
2010,08,28,13,14,19.20
2010,08,28,13,15,19.30
2010,08,28,13,16,19.30
2010,08,28,13,17,19.30
2010,08,28,13,18,19.30
2010,08,28,13,19,19.30
2010,08,28,13,20,19.20
2010,08,28,13,21,19.10
2010,08,28,13,22,19.10
2010,08,28,13,23,19.00
2010,08,28,13,24,18.90
2010,08,28,13,25,18.90
2010,08,28,13,26,18.90
2010,08,28,13,27,18.90
2010,08,28,13,28,19.00
2010,08,28,13,29,19.10
2010,08,28,13,30,19.20
2010,08,28,13,31,19.30
2010,08,28,13,32,19.20
2010,08,28,13,33,19.30
2010,08,28,13,34,19.40
2010,08,28,13,35,19.40
2010,08,28,13,36,19.40
2010,08,28,13,37,19.40
2010,08,28,13,38,19.40
2010,08,28,13,39,19.50
2010,08,28,13,40,19.60
2010,08,28,13,41,19.80
2010,08,28,13,42,19.90
2010,08,28,13,43,19.90
2010,08,28,13,44,19.90
2010,08,28,13,45,19.90
2010,08,28,13,46,19.90
2010,08,28,13,47,19.90
2010,08,28,13,48,20.00
2010,08,28,13,49,19.90
2010,08,28,13,50,19.90
2010,08,28,13,51,19.90
2010,08,28,13,52,19.70
2010,08,28,13,53,19.70
2010,08,28,13,54,19.70
2010,08,28,13,55,19.70
2010,08,28,13,56,19.70
2010,08,28,13,57,19.70
2010,08,28,13,58,19.70
2010,08,28,13,59,19.80
2010,08,28,14,00,19.90
2010,08,28,14,01,19.90
2010,08,28,14,02,19.80
2010,08,28,14,03,19.80
2010,08,28,14,04,19.70
2010,08,28,14,05,19.60
2010,08,28,14,06,19.60
2010,08,28,14,07,19.60
2010,08,28,14,08,19.70
2010,08,28,14,09,19.80
2010,08,28,14,10,19.90
2010,08,28,14,11,20.00
2010,08,28,14,12,20.20
2010,08,28,14,13,20.30
2010,08,28,14,14,20.20
2010,08,28,14,15,20.20
2010,08,28,14,16,20.20
2010,08,28,14,17,20.20
2010,08,28,14,18,20.20
2010,08,28,14,19,20.20
2010,08,28,14,20,20.20
2010,08,28,14,21,20.10
2010,08,28,14,22,20.00
2010,08,28,14,23,19.90
2010,08,28,14,24,19.90
2010,08,28,14,25,19.70
2010,08,28,14,26,19.60
2010,08,28,14,27,19.60
2010,08,28,14,28,19.50
2010,08,28,14,29,19.40
2010,08,28,14,30,19.40
2010,08,28,14,31,19.30
2010,08,28,14,32,19.30
2010,08,28,14,33,19.30
2010,08,28,14,34,19.40
2010,08,28,14,35,19.50
2010,08,28,14,36,19.70
2010,08,28,14,37,19.80
2010,08,28,14,38,19.90
2010,08,28,14,39,19.90
2010,08,28,14,40,20.00
2010,08,28,14,41,20.20
2010,08,28,14,42,20.20
2010,08,28,14,43,20.30
2010,08,28,14,44,20.40
2010,08,28,14,45,20.40
2010,08,28,14,46,20.40
2010,08,28,14,47,20.40
2010,08,28,14,48,20.50
2010,08,28,14,49,20.60
2010,08,28,14,50,20.50
2010,08,28,14,51,20.60
2010,08,28,14,52,20.70
2010,08,28,14,53,20.70
2010,08,28,14,54,20.80
2010,08,28,14,55,20.50
2010,08,28,14,56,20.40
2010,08,28,14,57,20.30
2010,08,28,14,58,20.10
2010,08,28,14,59,19.90
2010,08,28,15,00,19.70
2010,08,28,15,01,19.60
2010,08,28,15,02,19.60
2010,08,28,15,03,19.60
2010,08,28,15,04,19.60
2010,08,28,15,05,19.60
2010,08,28,15,06,19.60
2010,08,28,15,07,19.50
2010,08,28,15,08,19.60
2010,08,28,15,09,19.60
2010,08,28,15,10,19.70
2010,08,28,15,11,19.60
2010,08,28,15,12,19.60
2010,08,28,15,13,19.70
2010,08,28,15,14,19.80
2010,08,28,15,15,19.80
2010,08,28,15,16,19.90
2010,08,28,15,17,19.90
2010,08,28,15,18,19.90
2010,08,28,15,19,19.90
2010,08,28,15,20,20.00
2010,08,28,15,21,20.00
2010,08,28,15,22,19.90
2010,08,28,15,23,19.80
2010,08,28,15,24,19.80
2010,08,28,15,25,19.70
2010,08,28,15,26,19.80
2010,08,28,15,27,19.90
2010,08,28,15,28,19.90
2010,08,28,15,29,19.90
2010,08,28,15,30,20.00
2010,08,28,15,31,20.10
2010,08,28,15,32,20.10
2010,08,28,15,33,20.10
2010,08,28,15,34,20.10
2010,08,28,15,35,20.20
2010,08,28,15,36,20.20
2010,08,28,15,37,20.10
2010,08,28,15,38,19.90
2010,08,28,15,39,19.90
2010,08,28,15,40,19.90
2010,08,28,15,41,19.90
2010,08,28,15,42,19.90
2010,08,28,15,43,20.00
2010,08,28,15,44,20.10
2010,08,28,15,45,20.20
2010,08,28,15,46,20.20
2010,08,28,15,47,20.20
2010,08,28,15,48,20.20
2010,08,28,15,49,20.20
2010,08,28,15,50,20.20
2010,08,28,15,51,20.30
2010,08,28,15,52,20.40
2010,08,28,15,53,20.50
2010,08,28,15,54,20.60
2010,08,28,15,55,20.70
2010,08,28,15,56,20.90
2010,08,28,15,57,21.00
2010,08,28,15,58,21.10
2010,08,28,15,59,21.10
2010,08,28,16,00,21.10
2010,08,28,16,01,20.90
2010,08,28,16,02,20.80
2010,08,28,16,03,20.70
2010,08,28,16,04,20.70
2010,08,28,16,05,20.50
2010,08,28,16,06,20.50
2010,08,28,16,07,20.50
2010,08,28,16,08,20.50
2010,08,28,16,09,20.60
2010,08,28,16,10,20.60
2010,08,28,16,11,20.70
2010,08,28,16,12,20.70
2010,08,28,16,13,20.70
2010,08,28,16,14,20.80
2010,08,28,16,15,20.80
2010,08,28,16,16,20.90
2010,08,28,16,17,20.90
2010,08,28,16,18,20.90
2010,08,28,16,19,21.00
2010,08,28,16,20,21.00
2010,08,28,16,21,21.00
2010,08,28,16,22,21.00
2010,08,28,16,23,21.00
2010,08,28,16,24,21.10
2010,08,28,16,25,21.20
2010,08,28,16,26,21.20
2010,08,28,16,27,21.30
2010,08,28,16,28,21.30
2010,08,28,16,29,21.40
2010,08,28,16,30,21.50
2010,08,28,16,31,21.40
2010,08,28,16,32,21.50
2010,08,28,16,33,21.50
2010,08,28,16,34,21.60
2010,08,28,16,35,21.50
2010,08,28,16,36,21.40
2010,08,28,16,37,21.30
2010,08,28,16,38,21.20
2010,08,28,16,39,21.20
2010,08,28,16,40,21.30
2010,08,28,16,41,21.30
2010,08,28,16,42,21.20
2010,08,28,16,43,21.20
2010,08,28,16,44,21.10
2010,08,28,16,45,21.00
2010,08,28,16,46,21.00
2010,08,28,16,47,20.90
2010,08,28,16,48,20.90
2010,08,28,16,49,20.90
2010,08,28,16,50,20.90
2010,08,28,16,51,20.90
2010,08,28,16,52,21.00
2010,08,28,16,53,21.00
2010,08,28,16,54,21.10
2010,08,28,16,55,21.30
2010,08,28,16,56,21.30
2010,08,28,16,57,21.30
2010,08,28,16,58,21.30
2010,08,28,16,59,21.10
2010,08,28,17,00,21.10
2010,08,28,17,01,21.10
2010,08,28,17,02,21.00
2010,08,28,17,03,21.00
2010,08,28,17,04,21.00
2010,08,28,17,05,21.00
2010,08,28,17,06,21.10
2010,08,28,17,07,21.20
2010,08,28,17,08,21.30
2010,08,28,17,09,21.30
2010,08,28,17,10,21.30
2010,08,28,17,11,21.20
2010,08,28,17,12,21.00
2010,08,28,17,13,20.90
2010,08,28,17,14,20.90
2010,08,28,17,15,20.90
2010,08,28,17,16,20.90
2010,08,28,17,17,20.90
2010,08,28,17,18,21.00
2010,08,28,17,19,21.00
2010,08,28,17,20,21.10
2010,08,28,17,21,21.10
2010,08,28,17,22,21.10
2010,08,28,17,23,21.10
2010,08,28,17,24,21.00
2010,08,28,17,25,20.90
2010,08,28,17,26,20.90
2010,08,28,17,27,20.80
2010,08,28,17,28,20.80
2010,08,28,17,29,20.80
2010,08,28,17,30,20.90
2010,08,28,17,31,20.90
2010,08,28,17,32,20.90
2010,08,28,17,33,21.00
2010,08,28,17,34,21.00
2010,08,28,17,35,21.10
2010,08,28,17,36,21.10
2010,08,28,17,37,21.20
2010,08,28,17,38,21.20
2010,08,28,17,39,21.20
2010,08,28,17,40,21.20
2010,08,28,17,41,21.10
2010,08,28,17,42,21.00